This is the latest recevied weather packets stored in our database for station/object KI4MRC. If no packets are shown the sender has not sent any weather packets the latest 10 day(s).
| Time | Temp. | Humidity | Pressure | Rain* | Wind** | Luminosity | Snow |
|---|---|---|---|---|---|---|---|
| 1777883503 | 22.22° C | 98% | 1012.4 hPa | 0 mm | - | 0 W/m² | - |
| 1777883200 | 22.22° C | 98% | 1012.3 hPa | 0 mm | - | 0 W/m² | - |
| 1777882896 | 22.22° C | 98% | 1012.4 hPa | 0 mm | - | 0 W/m² | - |
| 1777882593 | 22.22° C | 98% | 1012.5 hPa | 0 mm | - | 0 W/m² | - |
| 1777882289 | 22.22° C | 98% | 1012.7 hPa | 0 mm | - | 0 W/m² | - |
| 1777881986 | 22.22° C | 98% | 1012.8 hPa | 0.51 mm | - | 0 W/m² | - |
| 1777881682 | 22.22° C | 97% | 1012.8 hPa | 1.27 mm | - | 0 W/m² | - |
| 1777881380 | 22.22° C | 97% | 1013.1 hPa | 1.78 mm | - | 0 W/m² | - |
| 1777881076 | 22.22° C | 97% | 1013.3 hPa | 2.29 mm | - | 0 W/m² | - |
| 1777880775 | 22.22° C | 97% | 1013.3 hPa | 1.78 mm | - | 0 W/m² | - |
| 1777880472 | 22.22° C | 97% | 1013.5 hPa | 2.29 mm | - | 0 W/m² | - |
| 1777880171 | 22.78° C | 97% | 1013.5 hPa | 1.27 mm | - | 0 W/m² | - |
| 1777879868 | 22.78° C | 97% | 1013.9 hPa | 0 mm | - | 0 W/m² | - |
| 1777879566 | 22.78° C | 97% | 1013.8 hPa | 0 mm | - | 0 W/m² | - |
| 1777879262 | 22.78° C | 97% | 1013.7 hPa | 0 mm | - | 0 W/m² | - |
| 1777878960 | 22.78° C | 97% | 1013.4 hPa | 0 mm | - | 0 W/m² | - |
| 1777878657 | 22.78° C | 97% | 1013.2 hPa | 0 mm | - | 0 W/m² | - |
| 1777878354 | 22.78° C | 97% | 1013.1 hPa | 0 mm | - | 0 W/m² | - |
| 1777878050 | 22.78° C | 97% | 1013.3 hPa | 0 mm | - | 0 W/m² | - |
| 1777877746 | 22.78° C | 97% | 1013.6 hPa | 0 mm | - | 0 W/m² | - |
| 1777877444 | 22.78° C | 97% | 1013.6 hPa | 0 mm | - | 0 W/m² | - |
| 1777877140 | 22.78° C | 97% | 1013.7 hPa | 0 mm | - | 0 W/m² | - |
| 1777876838 | 22.78° C | 97% | 1013.9 hPa | 0 mm | - | 0 W/m² | - |
| 1777876535 | 22.78° C | 97% | 1014 hPa | 0 mm | - | 0 W/m² | - |
| 1777876232 | 22.78° C | 97% | 1013.9 hPa | 0 mm | - | 0 W/m² | - |
* Rain latest hour (hover to see other rain measurements)
** Current wind speed in m/s (hover to see current wind gust speed)